Year,Month,Day,Hour,Minute,Value (Times are PST for windgust in km/hr)
2012,10,16,00,00,17.70
2012,10,16,00,01,4.80
2012,10,16,00,02,4.80
2012,10,16,00,03,4.80
2012,10,16,00,04,29.00
2012,10,16,00,05,9.60
2012,10,16,00,06,11.30
2012,10,16,00,07,6.40
2012,10,16,00,08,20.90
2012,10,16,00,09,19.30
2012,10,16,00,10,17.70
2012,10,16,00,11,6.40
2012,10,16,00,12,27.40
2012,10,16,00,13,19.30
2012,10,16,00,14,20.90
2012,10,16,00,15,16.10
2012,10,16,00,16,14.50
2012,10,16,00,17,25.70
2012,10,16,00,18,16.10
2012,10,16,00,19,37.00
2012,10,16,00,20,27.40
2012,10,16,00,21,27.40
2012,10,16,00,22,16.10
2012,10,16,00,23,33.80
2012,10,16,00,24,20.90
2012,10,16,00,25,19.30
2012,10,16,00,26,16.10
2012,10,16,00,27,14.50
2012,10,16,00,28,20.90
2012,10,16,00,29,25.70
2012,10,16,00,30,22.50
2012,10,16,00,31,20.90
2012,10,16,00,32,35.40
2012,10,16,00,33,30.60
2012,10,16,00,34,19.30
2012,10,16,00,35,24.20
2012,10,16,00,36,32.20
2012,10,16,00,37,32.20
2012,10,16,00,38,40.20
2012,10,16,00,39,9.60
2012,10,16,00,40,19.30
2012,10,16,00,41,24.20
2012,10,16,00,42,19.30
2012,10,16,00,43,20.90
2012,10,16,00,44,11.30
2012,10,16,00,45,33.80
2012,10,16,00,46,19.30
2012,10,16,00,47,25.70
2012,10,16,00,48,32.20
2012,10,16,00,49,30.60
2012,10,16,00,50,17.70
2012,10,16,00,51,32.20
2012,10,16,00,52,41.80
2012,10,16,00,53,53.10
2012,10,16,00,54,32.20
2012,10,16,00,55,37.00
2012,10,16,00,56,25.70
2012,10,16,00,57,20.90
2012,10,16,00,58,16.10
2012,10,16,00,59,25.70
2012,10,16,01,00,20.90
2012,10,16,01,01,29.00
2012,10,16,01,02,17.70
2012,10,16,01,03,27.40
2012,10,16,01,04,8.10
2012,10,16,01,05,29.00
2012,10,16,01,06,25.70
2012,10,16,01,07,17.70
2012,10,16,01,08,9.60
2012,10,16,01,09,6.40
2012,10,16,01,10,22.50
2012,10,16,01,11,38.60
2012,10,16,01,12,20.90
2012,10,16,01,13,8.10
2012,10,16,01,14,14.50
2012,10,16,01,15,16.10
2012,10,16,01,16,16.10
2012,10,16,01,17,22.50
2012,10,16,01,18,16.10
2012,10,16,01,19,9.60
2012,10,16,01,20,22.50
2012,10,16,01,21,16.10
2012,10,16,01,22,16.10
2012,10,16,01,23,22.50
2012,10,16,01,24,20.90
2012,10,16,01,25,9.60
2012,10,16,01,26,8.10
2012,10,16,01,27,20.90
2012,10,16,01,28,11.30
2012,10,16,01,29,14.50
2012,10,16,01,30,11.30
2012,10,16,01,31,19.30
2012,10,16,01,32,27.40
2012,10,16,01,33,32.20
2012,10,16,01,34,19.30
2012,10,16,01,35,22.50
2012,10,16,01,36,25.70
2012,10,16,01,37,20.90
2012,10,16,01,38,35.40
2012,10,16,01,39,25.70
2012,10,16,01,40,22.50
2012,10,16,01,41,19.30
2012,10,16,01,42,12.90
2012,10,16,01,43,25.70
2012,10,16,01,44,11.30
2012,10,16,01,45,16.10
2012,10,16,01,46,20.90
2012,10,16,01,47,30.60
2012,10,16,01,48,24.20
2012,10,16,01,49,16.10
2012,10,16,01,50,19.30
2012,10,16,01,51,33.80
2012,10,16,01,52,19.30
2012,10,16,01,53,24.20
2012,10,16,01,54,35.40
2012,10,16,01,55,16.10
2012,10,16,01,56,22.50
2012,10,16,01,57,16.10
2012,10,16,01,58,30.60
2012,10,16,01,59,19.30
2012,10,16,02,00,27.40
2012,10,16,02,01,8.10
2012,10,16,02,02,35.40
2012,10,16,02,03,33.80
2012,10,16,02,04,27.40
2012,10,16,02,05,20.90
2012,10,16,02,06,17.70
2012,10,16,02,07,33.80
2012,10,16,02,08,6.40
2012,10,16,02,09,30.60
2012,10,16,02,10,16.10
2012,10,16,02,11,4.80
2012,10,16,02,12,19.30
2012,10,16,02,13,8.10
2012,10,16,02,14,16.10
2012,10,16,02,15,9.60
2012,10,16,02,16,11.30
2012,10,16,02,17,11.30
2012,10,16,02,18,20.90
2012,10,16,02,19,17.70
2012,10,16,02,20,4.80
2012,10,16,02,21,11.30
2012,10,16,02,22,29.00
2012,10,16,02,23,20.90
2012,10,16,02,24,20.90
2012,10,16,02,25,16.10
2012,10,16,02,26,27.40
2012,10,16,02,27,17.70
2012,10,16,02,28,14.50
2012,10,16,02,29,19.30
2012,10,16,02,30,9.60
2012,10,16,02,31,27.40
2012,10,16,02,32,22.50
2012,10,16,02,33,35.40
2012,10,16,02,34,22.50
2012,10,16,02,35,32.20
2012,10,16,02,36,32.20
2012,10,16,02,37,38.60
2012,10,16,02,38,17.70
2012,10,16,02,39,16.10
2012,10,16,02,40,30.60
2012,10,16,02,41,22.50
2012,10,16,02,42,20.90
2012,10,16,02,43,12.90
2012,10,16,02,44,16.10
2012,10,16,02,45,16.10
2012,10,16,02,46,11.30
2012,10,16,02,47,14.50
2012,10,16,02,48,8.10
2012,10,16,02,49,9.60
2012,10,16,02,50,20.90
2012,10,16,02,51,17.70
2012,10,16,02,52,22.50
2012,10,16,02,53,9.60
2012,10,16,02,54,27.40
2012,10,16,02,55,29.00
2012,10,16,02,56,11.30
2012,10,16,02,57,9.60
2012,10,16,02,58,22.50
2012,10,16,02,59,24.20
2012,10,16,03,00,22.50
2012,10,16,03,01,27.40
2012,10,16,03,02,24.20
2012,10,16,03,07,14.50
2012,10,16,03,08,33.80
2012,10,16,03,09,19.30
2012,10,16,03,10,20.90
2012,10,16,03,11,19.30
2012,10,16,03,12,29.00
2012,10,16,03,13,16.10
2012,10,16,03,14,22.50
2012,10,16,03,15,30.60
2012,10,16,03,16,11.30
2012,10,16,03,17,12.90
2012,10,16,03,18,24.20
2012,10,16,03,19,20.90
2012,10,16,03,20,29.00
2012,10,16,03,21,24.20
2012,10,16,03,22,30.60
2012,10,16,03,23,17.70
2012,10,16,03,24,27.40
2012,10,16,03,25,14.50
2012,10,16,03,26,22.50
2012,10,16,03,27,24.20
2012,10,16,03,28,11.30
2012,10,16,03,29,20.90
2012,10,16,03,30,20.90
2012,10,16,03,31,17.70
2012,10,16,03,32,4.80
2012,10,16,03,33,22.50
2012,10,16,03,34,17.70
2012,10,16,03,35,20.90
2012,10,16,03,36,12.90
2012,10,16,03,37,4.80
2012,10,16,03,38,14.50
2012,10,16,03,39,32.20
2012,10,16,03,40,30.60
2012,10,16,03,41,24.20
2012,10,16,03,42,17.70
2012,10,16,03,43,11.30
2012,10,16,03,44,16.10
2012,10,16,03,45,27.40
2012,10,16,03,46,12.90
2012,10,16,03,47,12.90
2012,10,16,03,48,17.70
2012,10,16,03,49,9.60
2012,10,16,03,50,16.10
2012,10,16,03,51,11.30
2012,10,16,03,52,8.10
2012,10,16,03,53,17.70
2012,10,16,03,54,9.60
2012,10,16,03,55,20.90
2012,10,16,03,56,17.70
2012,10,16,03,57,14.50
2012,10,16,03,58,16.10
2012,10,16,03,59,8.10
2012,10,16,04,00,20.90
2012,10,16,04,01,11.30
2012,10,16,04,02,12.90
2012,10,16,04,03,9.60
2012,10,16,04,04,22.50
2012,10,16,04,05,24.20
2012,10,16,04,06,11.30
2012,10,16,04,07,9.60
2012,10,16,04,08,9.60
2012,10,16,04,09,11.30
2012,10,16,04,10,3.20
2012,10,16,04,11,12.90
2012,10,16,04,12,8.10
2012,10,16,04,13,4.80
2012,10,16,04,14,12.90
2012,10,16,04,15,4.80
2012,10,16,04,16,9.60
2012,10,16,04,17,4.80
2012,10,16,04,18,19.30
2012,10,16,04,19,14.50
2012,10,16,04,20,1.60
2012,10,16,04,21,8.10
2012,10,16,04,22,14.50
2012,10,16,04,23,6.40
2012,10,16,04,24,3.20
2012,10,16,04,25,11.30
2012,10,16,04,26,17.70
2012,10,16,04,27,14.50
2012,10,16,04,28,8.10
2012,10,16,04,29,4.80
2012,10,16,04,30,3.20
2012,10,16,04,31,8.10
2012,10,16,04,32,16.10
2012,10,16,04,33,11.30
2012,10,16,04,34,4.80
2012,10,16,04,35,9.60
2012,10,16,04,36,4.80
2012,10,16,04,37,6.40
2012,10,16,04,38,8.10
2012,10,16,04,39,6.40
2012,10,16,04,40,9.60
2012,10,16,04,41,11.30
2012,10,16,04,42,4.80
2012,10,16,04,43,6.40
2012,10,16,04,44,20.90
2012,10,16,04,45,9.60
2012,10,16,04,46,3.20
2012,10,16,04,47,11.30
2012,10,16,04,48,6.40
2012,10,16,04,49,14.50
2012,10,16,04,50,3.20
2012,10,16,04,51,16.10
2012,10,16,04,52,8.10
2012,10,16,04,53,4.80
2012,10,16,04,54,8.10
2012,10,16,04,55,8.10
2012,10,16,04,56,9.60
2012,10,16,04,57,9.60
2012,10,16,04,58,6.40
2012,10,16,04,59,4.80
2012,10,16,05,00,16.10
2012,10,16,05,01,4.80
2012,10,16,05,02,3.20
2012,10,16,05,03,4.80
2012,10,16,05,04,9.60
2012,10,16,05,05,9.60
2012,10,16,05,06,9.60
2012,10,16,05,07,11.30
2012,10,16,05,08,19.30
2012,10,16,05,09,17.70
2012,10,16,05,10,11.30
2012,10,16,05,11,6.40
2012,10,16,05,12,12.90
2012,10,16,05,13,25.70
2012,10,16,05,14,4.80
2012,10,16,05,15,6.40
2012,10,16,05,16,3.20
2012,10,16,05,17,12.90
2012,10,16,05,18,17.70
2012,10,16,05,19,6.40
2012,10,16,05,20,4.80
2012,10,16,05,21,8.10
2012,10,16,05,22,1.60
2012,10,16,05,23,3.20
2012,10,16,05,24,3.20
2012,10,16,05,31,9.60
2012,10,16,05,32,9.60
2012,10,16,05,33,8.10
2012,10,16,05,34,4.80
2012,10,16,05,35,8.10
2012,10,16,05,36,1.60
2012,10,16,05,37,1.60
2012,10,16,05,38,1.60
2012,10,16,05,39,3.20
2012,10,16,05,40,3.20
2012,10,16,05,41,3.20
2012,10,16,05,42,1.60
2012,10,16,05,43,4.80
2012,10,16,05,44,1.60
2012,10,16,05,46,3.20
2012,10,16,05,47,3.20
2012,10,16,05,48,1.60
2012,10,16,05,51,3.20
2012,10,16,05,52,3.20
2012,10,16,05,53,1.60
2012,10,16,05,56,1.60
2012,10,16,05,59,1.60
2012,10,16,06,00,1.60
2012,10,16,06,01,1.60
2012,10,16,06,02,1.60
2012,10,16,06,03,3.20
2012,10,16,06,04,1.60
2012,10,16,06,07,1.60
2012,10,16,06,08,1.60
2012,10,16,06,11,1.60
2012,10,16,06,15,1.60
2012,10,16,06,16,4.80
2012,10,16,06,17,3.20
2012,10,16,06,18,4.80
2012,10,16,06,20,1.60
2012,10,16,06,22,1.60
2012,10,16,06,23,1.60
2012,10,16,06,24,1.60
2012,10,16,06,25,1.60
2012,10,16,06,26,1.60
2012,10,16,06,28,1.60
2012,10,16,06,29,1.60
2012,10,16,06,32,1.60
2012,10,16,06,34,1.60
2012,10,16,06,35,3.20
2012,10,16,06,36,1.60
2012,10,16,06,38,8.10
2012,10,16,06,39,1.60
2012,10,16,06,40,1.60
2012,10,16,06,41,1.60
2012,10,16,06,42,3.20
2012,10,16,06,43,3.20
2012,10,16,06,44,1.60
2012,10,16,06,45,1.60
2012,10,16,06,46,1.60
2012,10,16,06,51,1.60
2012,10,16,06,53,1.60
2012,10,16,06,54,3.20
2012,10,16,06,55,1.60
2012,10,16,06,56,1.60
2012,10,16,06,57,1.60
2012,10,16,06,58,1.60
2012,10,16,07,00,1.60
2012,10,16,07,01,1.60
2012,10,16,07,03,4.80
2012,10,16,07,04,1.60
2012,10,16,07,06,1.60
2012,10,16,07,13,1.60
2012,10,16,07,18,1.60
2012,10,16,07,24,1.60
2012,10,16,07,25,1.60
2012,10,16,07,28,1.60
2012,10,16,07,29,1.60
2012,10,16,07,30,1.60
2012,10,16,07,33,1.60
2012,10,16,07,43,1.60
2012,10,16,07,46,1.60
2012,10,16,07,51,1.60
2012,10,16,07,55,3.20
2012,10,16,07,56,1.60
2012,10,16,07,58,1.60
2012,10,16,07,59,1.60
2012,10,16,08,05,1.60
2012,10,16,08,12,3.20
2012,10,16,08,13,1.60
2012,10,16,08,15,1.60
2012,10,16,08,16,1.60
2012,10,16,08,17,1.60
2012,10,16,08,19,1.60
2012,10,16,08,20,1.60
2012,10,16,08,25,1.60
2012,10,16,08,26,1.60
2012,10,16,08,30,1.60
2012,10,16,08,43,1.60
2012,10,16,08,44,1.60
2012,10,16,08,45,4.80
2012,10,16,08,46,6.40
2012,10,16,08,47,4.80
2012,10,16,08,49,1.60
2012,10,16,08,50,1.60
2012,10,16,08,51,1.60
2012,10,16,08,53,1.60
2012,10,16,08,57,1.60
2012,10,16,08,58,1.60
2012,10,16,09,02,1.60
2012,10,16,09,03,1.60
2012,10,16,09,04,1.60
2012,10,16,09,06,1.60
2012,10,16,09,07,4.80
2012,10,16,09,08,6.40
2012,10,16,09,09,6.40
2012,10,16,09,10,6.40
2012,10,16,09,11,1.60
2012,10,16,09,13,1.60
2012,10,16,09,15,1.60
2012,10,16,09,16,4.80
2012,10,16,09,17,6.40
2012,10,16,09,18,1.60
2012,10,16,09,19,1.60
2012,10,16,09,20,1.60
2012,10,16,09,21,14.50
2012,10,16,09,22,4.80
2012,10,16,09,23,1.60
2012,10,16,09,24,3.20
2012,10,16,09,25,3.20
2012,10,16,09,28,8.10
2012,10,16,09,29,6.40
2012,10,16,09,30,6.40
2012,10,16,09,31,3.20
2012,10,16,09,32,4.80
2012,10,16,09,33,3.20
2012,10,16,09,34,4.80
2012,10,16,09,35,11.30
2012,10,16,09,36,3.20
2012,10,16,09,37,9.60
2012,10,16,09,38,3.20
2012,10,16,09,39,4.80
2012,10,16,09,40,6.40
2012,10,16,09,41,6.40
2012,10,16,09,42,14.50
2012,10,16,09,43,6.40
2012,10,16,09,44,4.80
2012,10,16,09,45,4.80
2012,10,16,09,46,3.20
2012,10,16,09,47,3.20
2012,10,16,09,48,3.20
2012,10,16,09,49,9.60
2012,10,16,09,50,4.80
2012,10,16,09,51,8.10
2012,10,16,09,52,6.40
2012,10,16,09,53,3.20
2012,10,16,09,54,9.60
2012,10,16,09,55,19.30
2012,10,16,09,56,3.20
2012,10,16,09,57,4.80
2012,10,16,09,58,3.20
2012,10,16,09,59,3.20
2012,10,16,10,00,6.40
2012,10,16,10,01,17.70
2012,10,16,10,02,19.30
2012,10,16,10,03,3.20
2012,10,16,10,04,9.60
2012,10,16,10,05,6.40
2012,10,16,10,06,9.60
2012,10,16,10,07,14.50
2012,10,16,10,08,16.10
2012,10,16,10,09,11.30
2012,10,16,10,10,8.10
2012,10,16,10,11,17.70
2012,10,16,10,12,6.40
2012,10,16,10,13,4.80
2012,10,16,10,14,16.10
2012,10,16,10,15,16.10
2012,10,16,10,16,14.50
2012,10,16,10,17,16.10
2012,10,16,10,18,19.30
2012,10,16,10,19,16.10
2012,10,16,10,20,11.30
2012,10,16,10,21,11.30
2012,10,16,10,22,14.50
2012,10,16,10,23,6.40
2012,10,16,10,24,9.60
2012,10,16,10,25,8.10
2012,10,16,10,26,3.20
2012,10,16,10,27,19.30
2012,10,16,10,28,19.30
2012,10,16,10,29,11.30
2012,10,16,10,30,17.70
2012,10,16,10,31,6.40
2012,10,16,10,32,11.30
2012,10,16,10,33,3.20
2012,10,16,10,34,1.60
2012,10,16,10,35,6.40
2012,10,16,10,36,9.60
2012,10,16,10,37,8.10
2012,10,16,10,38,17.70
2012,10,16,10,39,8.10
2012,10,16,10,40,3.20
2012,10,16,10,41,11.30
2012,10,16,10,42,11.30
2012,10,16,10,43,9.60
2012,10,16,10,44,20.90
2012,10,16,10,45,16.10
2012,10,16,10,46,17.70
2012,10,16,10,47,14.50
2012,10,16,10,48,4.80
2012,10,16,10,49,4.80
2012,10,16,10,50,12.90
2012,10,16,10,51,8.10
2012,10,16,10,52,4.80
2012,10,16,10,53,3.20
2012,10,16,10,54,8.10
2012,10,16,10,55,8.10
2012,10,16,10,56,6.40
2012,10,16,10,57,6.40
2012,10,16,10,58,24.20
2012,10,16,10,59,9.60
2012,10,16,11,00,27.40
2012,10,16,11,01,24.20
2012,10,16,11,02,8.10
2012,10,16,11,03,12.90
2012,10,16,11,04,9.60
2012,10,16,11,05,9.60
2012,10,16,11,06,16.10
2012,10,16,11,07,19.30
2012,10,16,11,08,14.50
2012,10,16,11,09,22.50
2012,10,16,11,10,17.70
2012,10,16,11,11,14.50
2012,10,16,11,12,19.30
2012,10,16,11,13,9.60
2012,10,16,11,14,14.50
2012,10,16,11,15,22.50
2012,10,16,11,16,19.30
2012,10,16,11,17,11.30
2012,10,16,11,18,8.10
2012,10,16,11,19,6.40
2012,10,16,11,20,24.20
2012,10,16,11,21,11.30
2012,10,16,11,22,20.90
2012,10,16,11,23,17.70
2012,10,16,11,24,16.10
2012,10,16,11,25,11.30
2012,10,16,11,26,17.70
2012,10,16,11,27,17.70
2012,10,16,11,28,11.30
2012,10,16,11,29,9.60
2012,10,16,11,30,4.80
2012,10,16,11,31,11.30
2012,10,16,11,32,19.30
2012,10,16,11,33,27.40
2012,10,16,11,34,11.30
2012,10,16,11,35,14.50
2012,10,16,11,36,11.30
2012,10,16,11,37,4.80
2012,10,16,11,38,19.30
2012,10,16,11,39,16.10
2012,10,16,11,40,14.50
2012,10,16,11,41,11.30
2012,10,16,11,42,9.60
2012,10,16,11,43,9.60
2012,10,16,11,44,8.10
2012,10,16,11,45,9.60
2012,10,16,11,46,22.50
2012,10,16,11,47,16.10
2012,10,16,11,48,17.70
2012,10,16,11,49,11.30
2012,10,16,11,50,17.70
2012,10,16,11,51,9.60
2012,10,16,11,52,6.40
2012,10,16,11,53,3.20
2012,10,16,11,54,4.80
2012,10,16,11,55,4.80
2012,10,16,11,56,4.80
2012,10,16,11,57,8.10
2012,10,16,11,58,12.90
2012,10,16,11,59,9.60
2012,10,16,12,00,11.30
2012,10,16,12,01,9.60
2012,10,16,12,02,8.10
2012,10,16,12,03,1.60
2012,10,16,12,04,6.40
2012,10,16,12,05,4.80
2012,10,16,12,06,3.20
2012,10,16,12,07,3.20
2012,10,16,12,08,20.90
2012,10,16,12,09,8.10
2012,10,16,12,10,6.40
2012,10,16,12,11,12.90
2012,10,16,12,12,11.30
2012,10,16,12,13,9.60
2012,10,16,12,14,3.20
2012,10,16,12,15,16.10
2012,10,16,12,16,8.10
2012,10,16,12,17,6.40
2012,10,16,12,18,11.30
2012,10,16,12,19,9.60
2012,10,16,12,20,8.10
2012,10,16,12,21,8.10
2012,10,16,12,22,30.60
2012,10,16,12,23,20.90
2012,10,16,12,24,11.30
2012,10,16,12,25,17.70
2012,10,16,12,26,8.10
2012,10,16,12,27,6.40
2012,10,16,12,28,6.40
2012,10,16,12,29,20.90
2012,10,16,12,30,19.30
2012,10,16,12,31,22.50
2012,10,16,12,32,11.30
2012,10,16,12,33,11.30
2012,10,16,12,34,8.10
2012,10,16,12,35,22.50
2012,10,16,12,36,9.60
2012,10,16,12,37,11.30
2012,10,16,12,38,14.50
2012,10,16,12,39,19.30
2012,10,16,12,40,25.70
2012,10,16,12,41,22.50
2012,10,16,12,42,14.50
2012,10,16,12,43,6.40
2012,10,16,12,44,12.90
2012,10,16,12,45,24.20
2012,10,16,12,46,11.30
2012,10,16,12,47,6.40
2012,10,16,12,48,8.10
2012,10,16,12,49,8.10
2012,10,16,12,50,22.50
2012,10,16,12,51,16.10
2012,10,16,12,52,32.20
2012,10,16,12,53,17.70
2012,10,16,12,54,22.50
2012,10,16,12,55,9.60
2012,10,16,12,56,9.60
2012,10,16,12,57,11.30
2012,10,16,12,58,9.60
2012,10,16,12,59,14.50
2012,10,16,13,00,8.10
2012,10,16,13,01,17.70
2012,10,16,13,02,17.70
2012,10,16,13,03,16.10
2012,10,16,13,04,14.50
2012,10,16,13,05,11.30
2012,10,16,13,06,4.80
2012,10,16,13,07,9.60
2012,10,16,13,08,11.30
2012,10,16,13,09,17.70
2012,10,16,13,10,16.10
2012,10,16,13,11,22.50
2012,10,16,13,12,20.90
2012,10,16,13,13,17.70
2012,10,16,13,14,9.60
2012,10,16,13,15,8.10
2012,10,16,13,16,8.10
2012,10,16,13,17,11.30
2012,10,16,13,18,9.60
2012,10,16,13,19,24.20
2012,10,16,13,20,20.90
2012,10,16,13,21,14.50
2012,10,16,13,22,20.90
2012,10,16,13,23,11.30
2012,10,16,13,24,14.50
2012,10,16,13,25,16.10
2012,10,16,13,26,16.10
2012,10,16,13,27,8.10
2012,10,16,13,28,16.10
2012,10,16,13,29,20.90
2012,10,16,13,30,16.10
2012,10,16,13,31,9.60
2012,10,16,13,32,9.60
2012,10,16,13,33,16.10
2012,10,16,13,34,1.60
2012,10,16,13,35,16.10
2012,10,16,13,36,16.10
2012,10,16,13,37,11.30
2012,10,16,13,38,14.50
2012,10,16,13,39,19.30
2012,10,16,13,40,14.50
2012,10,16,13,41,12.90
2012,10,16,13,42,11.30
2012,10,16,13,43,14.50
2012,10,16,13,44,19.30
2012,10,16,13,45,17.70
2012,10,16,13,46,24.20
2012,10,16,13,47,16.10
2012,10,16,13,48,9.60
2012,10,16,13,49,11.30
2012,10,16,13,50,16.10
2012,10,16,13,51,19.30
2012,10,16,13,52,11.30
2012,10,16,13,53,20.90
2012,10,16,13,54,16.10
2012,10,16,13,55,24.20
2012,10,16,13,56,20.90
2012,10,16,13,57,24.20
2012,10,16,13,58,16.10
2012,10,16,13,59,14.50
2012,10,16,14,00,16.10
2012,10,16,14,01,35.40
2012,10,16,14,02,29.00
2012,10,16,14,03,9.60
2012,10,16,14,04,6.40
2012,10,16,14,05,17.70
2012,10,16,14,06,20.90
2012,10,16,14,07,9.60
2012,10,16,14,08,20.90
2012,10,16,14,09,14.50
2012,10,16,14,10,32.20
2012,10,16,14,11,24.20
2012,10,16,14,12,17.70
2012,10,16,14,13,17.70
2012,10,16,14,14,14.50
2012,10,16,14,15,16.10
2012,10,16,14,16,25.70
2012,10,16,14,17,22.50
2012,10,16,14,18,25.70
2012,10,16,14,19,32.20
2012,10,16,14,20,19.30
2012,10,16,14,21,22.50
2012,10,16,14,22,14.50
2012,10,16,14,23,17.70
2012,10,16,14,24,14.50
2012,10,16,14,25,12.90
2012,10,16,14,26,9.60
2012,10,16,14,27,11.30
2012,10,16,14,28,8.10
2012,10,16,14,29,8.10
2012,10,16,14,30,11.30
2012,10,16,14,31,14.50
2012,10,16,14,32,4.80
2012,10,16,14,33,1.60
2012,10,16,14,34,6.40
2012,10,16,14,35,17.70
2012,10,16,14,36,8.10
2012,10,16,14,37,4.80
2012,10,16,14,38,12.90
2012,10,16,14,39,16.10
2012,10,16,14,40,9.60
2012,10,16,14,41,20.90
2012,10,16,14,42,4.80
2012,10,16,14,43,4.80
2012,10,16,14,44,14.50
2012,10,16,14,45,19.30
2012,10,16,14,46,11.30
2012,10,16,14,47,17.70
2012,10,16,14,48,14.50
2012,10,16,14,49,6.40
2012,10,16,14,50,9.60
2012,10,16,14,51,12.90
2012,10,16,14,52,11.30
2012,10,16,14,53,14.50
2012,10,16,14,54,6.40
2012,10,16,14,55,9.60
2012,10,16,14,56,8.10
2012,10,16,14,57,14.50
2012,10,16,14,58,16.10
2012,10,16,14,59,6.40
2012,10,16,15,00,17.70
2012,10,16,15,01,14.50
2012,10,16,15,02,11.30
2012,10,16,15,03,9.60
2012,10,16,15,04,3.20
2012,10,16,15,05,6.40
2012,10,16,15,06,9.60
2012,10,16,15,07,19.30
2012,10,16,15,08,11.30
2012,10,16,15,09,17.70
2012,10,16,15,10,14.50
2012,10,16,15,11,8.10
2012,10,16,15,12,9.60
2012,10,16,15,13,27.40
2012,10,16,15,14,6.40
2012,10,16,15,15,3.20
2012,10,16,15,16,22.50
2012,10,16,15,17,16.10
2012,10,16,15,18,16.10
2012,10,16,15,19,11.30
2012,10,16,15,20,4.80
2012,10,16,15,21,11.30
2012,10,16,15,22,16.10
2012,10,16,15,23,30.60
2012,10,16,15,24,14.50
2012,10,16,15,25,12.90
2012,10,16,15,26,22.50
2012,10,16,15,27,9.60
2012,10,16,15,28,22.50
2012,10,16,15,29,19.30
2012,10,16,15,30,25.70
2012,10,16,15,31,17.70
2012,10,16,15,32,20.90
2012,10,16,15,33,8.10
2012,10,16,15,34,37.00
2012,10,16,15,35,16.10
2012,10,16,15,36,17.70
2012,10,16,15,37,19.30
2012,10,16,15,38,17.70
2012,10,16,15,39,11.30
2012,10,16,15,40,11.30
2012,10,16,15,41,32.20
2012,10,16,15,42,22.50
2012,10,16,15,43,35.40
2012,10,16,15,44,24.20
2012,10,16,15,45,24.20
2012,10,16,15,46,6.40
2012,10,16,15,47,9.60
2012,10,16,15,48,27.40
2012,10,16,15,49,24.20
2012,10,16,15,50,6.40
2012,10,16,15,51,9.60
2012,10,16,15,52,11.30
2012,10,16,15,53,17.70
2012,10,16,15,54,16.10
2012,10,16,15,55,17.70
2012,10,16,15,56,25.70
2012,10,16,15,57,24.20
2012,10,16,15,58,14.50
2012,10,16,15,59,8.10
2012,10,16,16,00,6.40
2012,10,16,16,01,16.10
2012,10,16,16,02,24.20
2012,10,16,16,03,22.50
2012,10,16,16,04,19.30
2012,10,16,16,05,19.30
2012,10,16,16,06,11.30
2012,10,16,16,07,17.70
2012,10,16,16,08,11.30
2012,10,16,16,09,11.30
2012,10,16,16,10,8.10
2012,10,16,16,11,6.40
2012,10,16,16,12,22.50
2012,10,16,16,13,25.70
2012,10,16,16,14,20.90
2012,10,16,16,15,22.50
2012,10,16,16,16,9.60
2012,10,16,16,17,20.90
2012,10,16,16,18,20.90
2012,10,16,16,19,16.10
2012,10,16,16,20,17.70
2012,10,16,16,21,19.30
2012,10,16,16,22,22.50
2012,10,16,16,23,3.20
2012,10,16,16,24,14.50
2012,10,16,16,25,22.50
2012,10,16,16,26,14.50
2012,10,16,16,27,4.80
2012,10,16,16,28,4.80
2012,10,16,16,29,3.20
2012,10,16,16,30,17.70
2012,10,16,16,31,9.60
2012,10,16,16,32,6.40
2012,10,16,16,33,22.50
2012,10,16,16,34,11.30
2012,10,16,16,35,9.60
2012,10,16,16,36,9.60
2012,10,16,16,37,8.10
2012,10,16,16,38,9.60
2012,10,16,16,39,8.10
2012,10,16,16,40,30.60
2012,10,16,16,41,9.60
2012,10,16,16,42,8.10
2012,10,16,16,43,11.30
2012,10,16,16,44,16.10
2012,10,16,16,45,9.60
2012,10,16,16,46,4.80
2012,10,16,16,47,6.40
2012,10,16,16,48,16.10
2012,10,16,16,49,8.10
2012,10,16,16,50,9.60
2012,10,16,16,51,8.10
2012,10,16,16,52,8.10
2012,10,16,16,53,11.30
2012,10,16,16,54,4.80
2012,10,16,16,55,1.60
2012,10,16,16,56,4.80
2012,10,16,16,57,6.40
2012,10,16,16,58,1.60
2012,10,16,16,59,19.30
2012,10,16,17,00,16.10
2012,10,16,17,01,14.50
2012,10,16,17,02,19.30
2012,10,16,17,03,8.10
2012,10,16,17,04,4.80
2012,10,16,17,05,17.70
2012,10,16,17,06,14.50
2012,10,16,17,07,11.30
2012,10,16,17,08,11.30
2012,10,16,17,09,3.20
2012,10,16,17,10,1.60
2012,10,16,17,11,1.60
2012,10,16,17,12,1.60
2012,10,16,17,13,6.40
2012,10,16,17,14,6.40
2012,10,16,17,15,8.10
2012,10,16,17,16,8.10
2012,10,16,17,17,4.80
2012,10,16,17,18,6.40
2012,10,16,17,19,6.40
2012,10,16,17,20,6.40
2012,10,16,17,21,4.80
2012,10,16,17,22,1.60
2012,10,16,17,25,3.20
2012,10,16,17,26,3.20
2012,10,16,17,27,1.60
2012,10,16,17,28,1.60
2012,10,16,17,29,11.30
2012,10,16,17,30,1.60
2012,10,16,17,31,3.20
2012,10,16,17,32,8.10
2012,10,16,17,33,1.60
2012,10,16,17,34,9.60
2012,10,16,17,35,6.40
2012,10,16,17,36,1.60
2012,10,16,17,37,1.60
2012,10,16,17,38,4.80
2012,10,16,17,39,3.20
2012,10,16,17,40,3.20
2012,10,16,17,41,3.20
2012,10,16,17,42,6.40
2012,10,16,17,43,3.20
2012,10,16,17,44,3.20
2012,10,16,17,45,3.20
2012,10,16,17,46,9.60
2012,10,16,17,47,6.40
2012,10,16,17,48,4.80
2012,10,16,17,49,8.10
2012,10,16,17,50,8.10
2012,10,16,17,51,3.20
2012,10,16,17,52,6.40
2012,10,16,17,53,6.40
2012,10,16,17,54,8.10
2012,10,16,17,55,6.40
2012,10,16,17,57,1.60
2012,10,16,18,00,3.20
2012,10,16,18,01,8.10
2012,10,16,18,02,3.20
2012,10,16,18,03,3.20
2012,10,16,18,04,3.20
2012,10,16,18,05,4.80
2012,10,16,18,06,1.60
2012,10,16,18,07,1.60
2012,10,16,18,08,6.40
2012,10,16,18,09,9.60
2012,10,16,18,10,1.60
2012,10,16,18,11,1.60
2012,10,16,18,12,6.40
2012,10,16,18,13,8.10
2012,10,16,18,14,16.10
2012,10,16,18,15,8.10
2012,10,16,18,16,1.60
2012,10,16,18,17,4.80
2012,10,16,18,18,4.80
2012,10,16,18,19,1.60
2012,10,16,18,20,1.60
2012,10,16,18,21,1.60
2012,10,16,18,22,6.40
2012,10,16,18,23,16.10
2012,10,16,18,24,3.20
2012,10,16,18,25,6.40
2012,10,16,18,26,4.80
2012,10,16,18,27,3.20
2012,10,16,18,29,1.60
2012,10,16,18,31,14.50
2012,10,16,18,32,9.60
2012,10,16,18,33,4.80
2012,10,16,18,34,1.60
2012,10,16,18,35,8.10
2012,10,16,18,36,1.60
2012,10,16,18,37,6.40
2012,10,16,18,38,6.40
2012,10,16,18,39,3.20
2012,10,16,18,40,6.40
2012,10,16,18,41,4.80
2012,10,16,18,42,4.80
2012,10,16,18,43,4.80
2012,10,16,18,44,6.40
2012,10,16,18,45,9.60
2012,10,16,18,46,1.60
2012,10,16,18,47,1.60
2012,10,16,18,48,3.20
2012,10,16,18,49,1.60
2012,10,16,18,50,1.60
2012,10,16,18,51,3.20
2012,10,16,18,52,4.80
2012,10,16,18,53,1.60
2012,10,16,18,54,1.60
2012,10,16,18,55,3.20
2012,10,16,18,56,3.20
2012,10,16,18,57,8.10
2012,10,16,18,58,9.60
2012,10,16,18,59,11.30
2012,10,16,19,00,8.10
2012,10,16,19,01,4.80
2012,10,16,19,02,3.20
2012,10,16,19,03,12.90
2012,10,16,19,04,4.80
2012,10,16,19,05,1.60
2012,10,16,19,06,3.20
2012,10,16,19,07,4.80
2012,10,16,19,08,8.10
2012,10,16,19,09,8.10
2012,10,16,19,10,8.10
2012,10,16,19,11,8.10
2012,10,16,19,12,3.20
2012,10,16,19,13,14.50
2012,10,16,19,14,6.40
2012,10,16,19,15,1.60
2012,10,16,19,16,6.40
2012,10,16,19,17,6.40
2012,10,16,19,18,11.30
2012,10,16,19,19,3.20
2012,10,16,19,20,4.80
2012,10,16,19,21,3.20
2012,10,16,19,22,1.60
2012,10,16,19,23,4.80
2012,10,16,19,24,1.60
2012,10,16,19,25,6.40
2012,10,16,19,26,4.80
2012,10,16,19,27,3.20
2012,10,16,19,28,4.80
2012,10,16,19,29,1.60
2012,10,16,19,30,4.80
2012,10,16,19,31,8.10
2012,10,16,19,32,6.40
2012,10,16,19,33,8.10
2012,10,16,19,34,11.30
2012,10,16,19,35,14.50
2012,10,16,19,36,11.30
2012,10,16,19,37,14.50
2012,10,16,19,38,6.40
2012,10,16,19,39,9.60
2012,10,16,19,40,9.60
2012,10,16,19,41,4.80
2012,10,16,19,42,4.80
2012,10,16,19,43,4.80
2012,10,16,19,44,11.30
2012,10,16,19,45,1.60
2012,10,16,19,46,8.10
2012,10,16,19,47,6.40
2012,10,16,19,48,8.10
2012,10,16,19,49,11.30
2012,10,16,19,50,8.10
2012,10,16,19,51,3.20